| time (UTC) | temp F | wind direction | speed MPH | gust MPH | rain 1hr in | rain 24hr in | rain mn in | humidity % | barometer mb |
| 20260504232501 | 74 | 263 | 6.0 | 16.0 | 0.00 | 0.00 | 0.00 | 47 | 1005.6 |
| 20260504232001 | 74 | 223 | 8.0 | 15.0 | 0.00 | 0.00 | 0.00 | 49 | 1005.6 |
| 20260504231509 | 74 | 146 | 4.0 | 15.0 | 0.00 | 0.00 | 0.00 | 54 | 1005.7 |
| 20260504231005 | 74 | 238 | 4.0 | 8.0 | 0.00 | 0.00 | 0.00 | 53 | 1005.7 |
| 20260504230506 | 73 | 155 | 2.0 | 11.0 | 0.00 | 0.00 | 0.00 | 55 | 1005.8 |
| 20260504230016 | 73 | 227 | 5.0 | 10.0 | 0.00 | 0.00 | 0.00 | 53 | 1005.8 |
| 20260504225509 | 73 | 196 | 2.0 | 6.0 | 0.00 | 0.00 | 0.00 | 54 | 1005.9 |
| 20260504225006 | 73 | 235 | 2.0 | 7.0 | 0.00 | 0.00 | 0.00 | 54 | 1006.0 |
| 20260504224520 | 73 | 210 | 3.0 | 8.0 | 0.00 | 0.00 | 0.00 | 53 | 1006.1 |
| 20260504224005 | 73 | 235 | 2.0 | 7.0 | 0.00 | 0.00 | 0.00 | 53 | 1006.1 |
| 20260504223510 | 74 | 215 | 3.0 | 6.0 | 0.00 | 0.00 | 0.00 | 53 | 1006.2 |
| 20260504223025 | 74 | 233 | 3.0 | 9.0 | 0.00 | 0.00 | 0.00 | 52 | 1006.2 |
| 20260504222509 | 74 | 221 | 3.0 | 9.0 | 0.00 | 0.00 | 0.00 | 52 | 1006.2 |
| 20260504222009 | 74 | 360 | 5.0 | 9.0 | 0.00 | 0.00 | 0.00 | 50 | 1006.2 |
| 20260504221516 | 74 | 360 | 4.0 | 9.0 | 0.00 | 0.00 | 0.00 | 52 | 1006.3 |
| 20260504221005 | 74 | 209 | 3.0 | 8.0 | 0.00 | 0.00 | 0.00 | 52 | 1006.3 |
| 20260504220506 | 73 | 228 | 2.0 | 6.0 | 0.00 | 0.00 | 0.00 | 51 | 1006.1 |
| 20260504220016 | 73 | 163 | 2.0 | 9.0 | 0.00 | 0.00 | 0.00 | 53 | 1006.4 |
| 20260504215506 | 73 | 240 | 3.0 | 12.0 | 0.00 | 0.00 | 0.00 | 51 | 1006.7 |
| 20260504215006 | 73 | 229 | 5.0 | 12.0 | 0.00 | 0.00 | 0.00 | 50 | 1006.8 |
| 20260504214521 | 73 | 276 | 4.0 | 11.0 | 0.00 | 0.00 | 0.00 | 52 | 1006.8 |
| 20260504214008 | 73 | 223 | 5.0 | 11.0 | 0.00 | 0.00 | 0.00 | 54 | 1006.8 |
| 20260504213505 | 73 | 242 | 6.0 | 11.0 | 0.00 | 0.00 | 0.00 | 50 | 1006.8 |
| 20260504213024 | 73 | 236 | 6.0 | 12.0 | 0.00 | 0.00 | 0.00 | 51 | 1006.9 |
| 20260504212511 | 74 | 284 | 5.0 | 15.0 | 0.00 | 0.00 | 0.00 | 51 | 1006.9 |
| 20260504212010 | 73 | 231 | 7.0 | 16.0 | 0.00 | 0.00 | 0.00 | 51 | 1007.0 |
| 20260504211528 | 73 | 237 | 6.0 | 16.0 | 0.00 | 0.00 | 0.00 | 51 | 1007.0 |
| 20260504211006 | 73 | 246 | 6.0 | 15.0 | 0.00 | 0.00 | 0.00 | 53 | 1007.2 |
| 20260504210505 | 73 | 240 | 7.0 | 15.0 | 0.00 | 0.00 | 0.00 | 52 | 1007.2 |
| 20260504210014 | 72 | 360 | 8.0 | 15.0 | 0.00 | 0.00 | 0.00 | 52 | 1007.2 |
| 20260504205509 | 72 | 241 | 7.0 | 13.0 | 0.00 | 0.00 | 0.00 | 51 | 1007.2 |
| 20260504205010 | 72 | 317 | 5.0 | 14.0 | 0.00 | 0.00 | 0.00 | 54 | 1007.3 |
| 20260504204520 | 72 | 251 | 4.0 | 14.0 | 0.00 | 0.00 | 0.00 | 54 | 1007.4 |
| 20260504204007 | 72 | 294 | 6.0 | 15.0 | 0.00 | 0.00 | 0.00 | 52 | 1007.8 |
| 20260504203507 | 72 | 266 | 9.0 | 15.0 | 0.00 | 0.00 | 0.00 | 52 | 1007.7 |
| 20260504203024 | 73 | 222 | 6.0 | 13.0 | 0.00 | 0.00 | 0.00 | 53 | 1007.7 |
| 20260504202509 | 73 | 239 | 8.0 | 15.0 | 0.00 | 0.00 | 0.00 | 51 | 1007.5 |
| 20260504202010 | 73 | 279 | 7.0 | 15.0 | 0.00 | 0.00 | 0.00 | 55 | 1007.6 |
| 20260504201528 | 72 | 291 | 6.0 | 11.0 | 0.00 | 0.00 | 0.00 | 56 | 1007.6 |
| 20260504201011 | 72 | 267 | 5.0 | 13.0 | 0.00 | 0.00 | 0.00 | 56 | 1007.6 |
| 20260504200509 | 71 | 256 | 6.0 | 13.0 | 0.00 | 0.00 | 0.00 | 61 | 1007.8 |
| 20260504200037 | 71 | 238 | 6.0 | 12.0 | 0.00 | 0.00 | 0.00 | 59 | 1007.8 |
| 20260504195504 | 70 | 261 | 5.0 | 11.0 | 0.00 | 0.00 | 0.00 | 59 | 1008.1 |
| 20260504195003 | 70 | 246 | 3.0 | 12.0 | 0.00 | 0.00 | 0.00 | 59 | 1008.2 |
| 20260504194521 | 69 | 163 | 6.0 | 12.0 | 0.00 | 0.00 | 0.00 | 59 | 1008.2 |
| 20260504194013 | 69 | 274 | 4.0 | 11.0 | 0.00 | 0.00 | 0.00 | 61 | 1008.4 |
| 20260504193507 | 68 | 215 | 7.0 | 11.0 | 0.00 | 0.00 | 0.00 | 60 | 1008.5 |
| 20260504193022 | 68 | 236 | 3.0 | 7.0 | 0.00 | 0.00 | 0.00 | 60 | 1008.2 |
| 20260504192507 | 68 | 215 | 4.0 | 7.0 | 0.00 | 0.00 | 0.00 | 61 | 1009.0 |
| 20260504192007 | 67 | 261 | 2.0 | 8.0 | 0.00 | 0.00 | 0.00 | 62 | 1009.1 |
| 20260504191538 | 67 | 257 | 2.0 | 8.0 | 0.00 | 0.00 | 0.00 | 61 | 1008.6 |
| 20260504191009 | 67 | 246 | 3.0 | 12.0 | 0.00 | 0.00 | 0.00 | 61 | 1009.1 |
| 20260504190507 | 67 | 244 | 3.0 | 12.0 | 0.00 | 0.00 | 0.00 | 61 | 1009.1 |
| 20260504190027 | 67 | 255 | 5.0 | 16.0 | 0.00 | 0.00 | 0.00 | 61 | 1009.5 |
| 20260504185511 | 68 | 267 | 4.0 | 16.0 | 0.00 | 0.00 | 0.00 | 61 | 1009.3 |
| 20260504185010 | 68 | 209 | 5.0 | 13.0 | 0.00 | 0.00 | 0.00 | 59 | 1009.3 |
| 20260504184516 | 68 | 258 | 4.0 | 17.0 | 0.00 | 0.00 | 0.00 | 60 | 1009.2 |
| 20260504184007 | 68 | 293 | 6.0 | 17.0 | 0.00 | 0.00 | 0.00 | 59 | 1009.1 |
| 20260504183508 | 68 | 233 | 9.0 | 15.0 | 0.00 | 0.00 | 0.00 | 57 | 1009.1 |
| 20260504183035 | 68 | 264 | 5.0 | 17.0 | 0.00 | 0.00 | 0.00 | 58 | 1008.7 |
| 20260504182509 | 69 | 260 | 8.0 | 17.0 | 0.00 | 0.00 | 0.00 | 59 | 1008.6 |
| 20260504182010 | 69 | 238 | 6.0 | 16.0 | 0.00 | 0.00 | 0.00 | 58 | 1008.5 |
| 20260504181526 | 70 | 218 | 8.0 | 16.0 | 0.00 | 0.00 | 0.00 | 58 | 1008.4 |
| 20260504181010 | 69 | 211 | 11.0 | 16.0 | 0.00 | 0.00 | 0.00 | 57 | 1008.2 |
| 20260504180509 | 69 | 212 | 4.0 | 14.0 | 0.00 | 0.00 | 0.00 | 61 | 1008.1 |
| 20260504180009 | 69 | 225 | 8.0 | 14.0 | 0.00 | 0.00 | 0.00 | 60 | 1008.1 |
| 20260504175504 | 68 | 165 | 4.0 | 14.0 | 0.00 | 0.00 | 0.00 | 63 | 1008.2 |
| 20260504175004 | 68 | 146 | 5.0 | 15.0 | 0.00 | 0.00 | 0.00 | 62 | 1008.1 |
| 20260504174515 | 68 | 235 | 7.0 | 15.0 | 0.00 | 0.00 | 0.00 | 60 | 1008.3 |
| 20260504174004 | 68 | 232 | 5.0 | 11.0 | 0.00 | 0.00 | 0.00 | 61 | 1008.5 |
| 20260504173503 | 68 | 222 | 6.0 | 11.0 | 0.00 | 0.00 | 0.00 | 61 | 1008.5 |
| 20260504173011 | 68 | 218 | 3.0 | 10.0 | 0.00 | 0.00 | 0.00 | 61 | 1008.3 |
| 20260504172507 | 67 | 239 | 5.0 | 10.0 | 0.00 | 0.00 | 0.00 | 63 | 1008.2 |
| 20260504172004 | 67 | 183 | 6.0 | 9.0 | 0.00 | 0.00 | 0.00 | 62 | 1008.3 |
| 20260504171503 | 67 | 244 | 3.0 | 9.0 | 0.00 | 0.00 | 0.00 | 63 | 1008.5 |
| 20260504171008 | 67 | 202 | 4.0 | 7.0 | 0.00 | 0.00 | 0.00 | 62 | 1008.3 |
| 20260504170504 | 66 | 185 | 3.0 | 7.0 | 0.00 | 0.00 | 0.00 | 62 | 1008.6 |
| 20260504151006 | 61 | 242 | 5.0 | 9.0 | 0.00 | 0.00 | 0.00 | 65 | 1009.3 |
| 20260504150506 | 62 | 215 | 5.0 | 9.0 | 0.00 | 0.00 | 0.00 | 63 | 1009.2 |
| 20260504141011 | 59 | 209 | 6.0 | 11.0 | 0.00 | 0.00 | 0.00 | 65 | 1009.8 |
| 20260504140505 | 59 | 232 | 6.0 | 10.0 | 0.00 | 0.00 | 0.00 | 66 | 1009.8 |
| 20260504130506 | 55 | 229 | 2.0 | 10.0 | 0.00 | 0.00 | 0.00 | 68 | 1010.0 |
| 20260504110505 | 50 | 178 | 0.0 | 2.0 | 0.00 | 0.00 | 0.00 | 69 | 1009.8 |
| 20260504100507 | 50 | 192 | 0.0 | 2.0 | 0.00 | 0.00 | 0.00 | 67 | 1010.1 |
| 20260504082003 | 52 | 103 | 0.0 | 4.0 | 0.00 | 0.00 | 0.00 | 62 | 1010.7 |
| 20260504081508 | 52 | 258 | 0.0 | 4.0 | 0.00 | 0.00 | 0.00 | 62 | 1010.8 |
| 20260504081003 | 52 | 198 | 1.0 | 4.0 | 0.00 | 0.00 | 0.00 | 62 | 1010.7 |
| 20260504080503 | 52 | 149 | 2.0 | 4.0 | 0.00 | 0.00 | 0.00 | 62 | 1010.7 |
| 20260504050507 | 51 | 131 | 0.0 | 4.0 | 0.00 | 0.00 | 0.00 | 62 | 1012.4 |
| 20260504045503 | 51 | 161 | 0.0 | 4.0 | 0.00 | 0.00 | 0.00 | 62 | 1012.5 |
| 20260504045003 | 51 | 184 | 0.0 | 4.0 | 0.00 | 0.00 | 0.00 | 61 | 1012.5 |
| 20260504044522 | 52 | 158 | 1.0 | 4.0 | 0.00 | 0.00 | 0.00 | 61 | 1012.5 |
| 20260504044009 | 52 | 118 | 1.0 | 3.0 | 0.00 | 0.00 | 0.00 | 61 | 1012.6 |
| 20260504043506 | 52 | 100 | 1.0 | 3.0 | 0.00 | 0.00 | 0.00 | 60 | 1012.7 |
| 20260504043026 | 52 | 113 | 1.0 | 3.0 | 0.00 | 0.00 | 0.00 | 60 | 1012.7 |
| 20260504042507 | 52 | 103 | 0.0 | 3.0 | 0.00 | 0.00 | 0.00 | 59 | 1012.7 |
| 20260504042006 | 52 | 128 | 1.0 | 3.0 | 0.00 | 0.00 | 0.00 | 59 | 1012.7 |
| 20260504041524 | 53 | 109 | 1.0 | 4.0 | 0.00 | 0.00 | 0.00 | 59 | 1012.8 |
| 20260504041008 | 53 | 147 | 1.0 | 4.0 | 0.00 | 0.00 | 0.00 | 58 | 1012.9 |
| 20260504040508 | 53 | 134 | 1.0 | 3.0 | 0.00 | 0.00 | 0.00 | 58 | 1012.9 |
| 20260504040026 | 53 | 138 | 2.0 | 3.0 | 0.00 | 0.00 | 0.00 | 58 | 1012.9 |
| 20260504035507 | 54 | 163 | 1.0 | 4.0 | 0.00 | 0.00 | 0.00 | 57 | 1012.9 |
| 20260504035011 | 54 | 149 | 2.0 | 4.0 | 0.00 | 0.00 | 0.00 | 57 | 1012.9 |
| 20260504034544 | 54 | 148 | 2.0 | 4.0 | 0.00 | 0.00 | 0.00 | 56 | 1013.1 |
| 20260504034002 | 54 | 157 | 1.0 | 4.0 | 0.00 | 0.00 | 0.00 | 56 | 1013.1 |
| 20260504033507 | 54 | 134 | 1.0 | 4.0 | 0.00 | 0.00 | 0.00 | 56 | 1013.1 |
| 20260504033018 | 54 | 167 | 0.0 | 3.0 | 0.00 | 0.00 | 0.00 | 56 | 1013.2 |
| 20260504032507 | 54 | 121 | 0.0 | 4.0 | 0.00 | 0.00 | 0.00 | 56 | 1013.1 |
| 20260504032011 | 54 | 131 | 1.0 | 4.0 | 0.00 | 0.00 | 0.00 | 55 | 1013.1 |
| 20260504031522 | 55 | 145 | 1.0 | 4.0 | 0.00 | 0.00 | 0.00 | 55 | 1013.1 |
| 20260504031006 | 55 | 177 | 0.0 | 4.0 | 0.00 | 0.00 | 0.00 | 54 | 1013.2 |
| 20260504030509 | 55 | 167 | 1.0 | 4.0 | 0.00 | 0.00 | 0.00 | 53 | 1013.2 |
| 20260504030039 | 55 | 202 | 1.0 | 3.0 | 0.00 | 0.00 | 0.00 | 53 | 1013.4 |
| 20260504025512 | 55 | 173 | 1.0 | 3.0 | 0.00 | 0.00 | 0.00 | 1013.3 | |
| 20260504025009 | 55 | 188 | 0.0 | 3.0 | 0.00 | 0.00 | 0.00 | 53 | 1013.4 |
| 20260504024529 | 56 | 199 | 0.0 | 3.0 | 0.00 | 0.00 | 0.00 | 53 | 1013.4 |
| 20260504024007 | 56 | 190 | 1.0 | 4.0 | 0.00 | 0.00 | 0.00 | 51 | 1013.5 |
| 20260504023509 | 56 | 183 | 0.0 | 5.0 | 0.00 | 0.00 | 0.00 | 51 | 1013.5 |
| 20260504023028 | 56 | 162 | 1.0 | 5.0 | 0.00 | 0.00 | 0.00 | 50 | 1013.5 |
| 20260504022502 | 56 | 150 | 0.0 | 6.0 | 0.00 | 0.00 | 0.00 | 50 | 1013.4 |
| 20260504022008 | 57 | 231 | 1.0 | 6.0 | 0.00 | 0.00 | 0.00 | 49 | 1013.5 |
| 20260504021522 | 57 | 176 | 1.0 | 3.0 | 0.00 | 0.00 | 0.00 | 50 | 1013.4 |
| 20260504021008 | 57 | 178 | 0.0 | 4.0 | 0.00 | 0.00 | 0.00 | 50 | 1013.5 |
| 20260504020505 | 57 | 225 | 2.0 | 10.0 | 0.00 | 0.00 | 0.00 | 47 | 1013.5 |
| 20260504020004 | 57 | 194 | 5.0 | 10.0 | 0.00 | 0.00 | 0.00 | 46 | 1013.4 |
| 20260504015503 | 57 | 157 | 1.0 | 3.0 | 0.00 | 0.00 | 0.00 | 46 | 1013.5 |
| 20260504015004 | 57 | 205 | 1.0 | 3.0 | 0.00 | 0.00 | 0.00 | 46 | 1013.3 |
| 20260504014528 | 57 | 232 | 1.0 | 3.0 | 0.00 | 0.00 | 0.00 | 47 | 1013.2 |
| 20260504014006 | 57 | 214 | 0.0 | 3.0 | 0.00 | 0.00 | 0.00 | 46 | 1013.1 |
| 20260504013503 | 57 | 221 | 2.0 | 3.0 | 0.00 | 0.00 | 0.00 | 45 | 1013.0 |
| 20260504013013 | 57 | 184 | 1.0 | 7.0 | 0.00 | 0.00 | 0.00 | 46 | 1013.1 |
| 20260504012503 | 57 | 240 | 2.0 | 7.0 | 0.00 | 0.00 | 0.00 | 45 | 1013.0 |
| 20260504012003 | 57 | 157 | 0.0 | 4.0 | 0.00 | 0.00 | 0.00 | 47 | 1013.0 |
| 20260504011520 | 57 | 150 | 0.0 | 2.0 | 0.00 | 0.00 | 0.00 | 45 | 1013.0 |
| 20260504011007 | 57 | 117 | 0.0 | 3.0 | 0.00 | 0.00 | 0.00 | 45 | 1013.0 |
| 20260504010506 | 57 | 213 | 0.0 | 6.0 | 0.00 | 0.00 | 0.00 | 46 | 1012.9 |
| 20260504010004 | 57 | 213 | 1.0 | 6.0 | 0.00 | 0.00 | 0.00 | 47 | 1013.1 |
| 20260504005503 | 57 | 217 | 1.0 | 7.0 | 0.00 | 0.00 | 0.00 | 45 | 1013.1 |
| 20260504005003 | 57 | 213 | 2.0 | 7.0 | 0.00 | 0.00 | 0.00 | 45 | 1013.0 |
| 20260504004511 | 57 | 236 | 0.0 | 5.0 | 0.00 | 0.00 | 0.00 | 45 | 1012.9 |
| 20260504004002 | 57 | 223 | 2.0 | 5.0 | 0.00 | 0.00 | 0.00 | 45 | 1012.9 |
| 20260504003504 | 58 | 220 | 1.0 | 5.0 | 0.00 | 0.00 | 0.00 | 44 | 1013.0 |
| 20260504003024 | 58 | 208 | 2.0 | 7.0 | 0.00 | 0.00 | 0.00 | 44 | 1013.1 |
| 20260504002506 | 58 | 227 | 2.0 | 7.0 | 0.00 | 0.00 | 0.00 | 44 | 1013.0 |
| 20260504002007 | 58 | 223 | 4.0 | 7.0 | 0.00 | 0.00 | 0.00 | 43 | 1012.9 |
| 20260504001514 | 58 | 201 | 3.0 | 6.0 | 0.00 | 0.00 | 0.00 | 44 | 1012.9 |
| 20260504001007 | 58 | 217 | 3.0 | 6.0 | 0.00 | 0.00 | 0.00 | 42 | 1012.9 |
| 20260504000503 | 58 | 217 | 4.0 | 6.0 | 0.00 | 0.00 | 0.00 | 42 | 1012.9 |
| 20260504000020 | 58 | 232 | 4.0 | 6.0 | 0.00 | 0.00 | 0.00 | 43 | 1012.8 |
| 20260503235509 | 58 | 203 | 2.0 | 6.0 | 0.00 | 0.00 | 0.00 | 43 | 1012.7 |
| 20260503235010 | 58 | 236 | 3.0 | 5.0 | 0.00 | 0.00 | 0.00 | 42 | 1012.7 |
| 20260503234513 | 59 | 198 | 4.0 | 10.0 | 0.00 | 0.00 | 0.00 | 42 | 1012.7 |
| 20260503234004 | 59 | 209 | 6.0 | 10.0 | 0.00 | 0.00 | 0.00 | 41 | 1012.8 |
| 20260503233504 | 59 | 212 | 3.0 | 9.0 | 0.00 | 0.00 | 0.00 | 42 | 1012.9 |
| 20260503233008 | 59 | 232 | 4.0 | 9.0 | 0.00 | 0.00 | 0.00 | 40 | 1013.0 |